Lid_Strength_Index
12 11 11 12 13 13 14 12 13 11 12 11 10 9 8 7 7 7 6 6 5 5 6 7 8 8 7 4 3 2 2 2 2 1 1 1 2 2 2 2 2 2 2 3
14 11 12 13 12 12 12 12 12 12 13 9 8 7 8 7 7 7 7 6 5 6 7 9 9 9 8 7 6 4 3 3 2 2 1 1 1 2 2 2 2 2 2 2
15 12 13 15 13 12 11 11 11 13 11 9 10 9 8 7 7 7 6 7 8 8 9 9 11 10 9 7 6 6 3 3 3 3 2 2 1 2 2 2 2 3 3 3
15 13 19 12 9 9 11 10 9 10 10 9 9 7 7 6 6 7 7 8 9 9 10 10 11 11 9 8 8 7 7 5 3 3 3 3 2 3 2 1 2 3 3 4
16 16 13 12 10 10 12 12 9 10 9 8 7 7 8 6 7 8 8 9 9 9 10 10 11 11 10 11 10 10 10 9 9 7 3 2 3 3 3 3 3 2 3 4
13 17 18 12 9 8 8 14 9 8 9 8 8 12 9 8 8 9 10 10 9 9 10 11 12 11 12 12 13 12 12 11 11 10 9 4 3 3 4 4 5 9 11 8
14 15 13 9 9 7 15 14 8 8 8 8 9 9 8 9 10 10 10 10 10 10 11 12 12 11 13 14 14 14 13 13 12 12 11 9 4 5 7 11 13 14 14 14
14 16 17 8 8 12 9 7 7 7 7 7 8 9 9 10 11 11 11 11 11 10 11 12 13 13 14 14 14 14 14 14 14 14 13 12 11 11 12 13 15 16 16 16
12 12 8 7 8 6 6 7 7 7 6 6 8 9 10 11 11 11 12 12 11 11 12 12 12 13 15 15 14 15 15 16 15 15 15 14 13 14 15 15 16 17 17 18
12 9 9 7 6 6 6 7 6 5 6 7 9 10 10 11 12 13 13 12 12 12 13 14 13 13 14 14 13 14 15 16 16 16 16 15 15 15 15 16 16 17 18 18
11 9 8 8 6 6 7 8 8 9 8 9 9 10 11 12 12 13 13 13 14 14 14 15 14 15 14 14 14 14 14 15 15 15 15 15 15 16 16 16 15 18 18 18
12 9 8 10 8 7 8 9 9 10 11 10 10 11 12 13 13 14 14 14 14 15 15 15 15 15 15 14 14 15 15 16 16 16 16 15 16 16 14 15 15 16 17 18
11 9 10 9 9 9 10 11 11 12 12 12 13 13 13 14 14 14 14 15 15 16 15 15 16 16 16 15 15 15 15 15 15 15 15 15 16 16 18 16 15 16 16 16
9 10 11 11 12 11 10 11 11 12 13 13 13 13 14 14 14 15 16 16 16 17 16 16 17 18 17 17 17 17 16 16 15 16 16 16 16 17 17 18 18 19 17 16
10 10 11 11 11 11 11 10 12 13 14 14 14 14 14 15 15 15 15 17 16 18 17 17 17 17 17 17 17 16 16 16 15 16 16 17 18 19 20 20 20 20 20 19
12 13 13 14 14 13 13 13 13 13 14 15 15 16 16 16 16 16 16 16 17 18 19 18 18 17 17 17 16 16 16 16 16 16 16 17 18 19 19 20 21 22 22 22
14 15 15 16 16 15 15 15 14 14 14 15 15 16 17 17 18 18 18 17 18 18 17 17 17 17 17 17 16 16 16 16 17 16 17 17 18 19 19 20 22 23 24 23
14 15 15 16 16 16 16 16 16 15 16 16 16 17 18 18 19 19 19 19 19 18 17 17 16 16 16 16 16 16 16 16 16 17 17 18 18 19 19 21 22 23 23 23
15 16 16 17 17 17 17 17 17 16 16 16 17 18 18 18 18 19 18 19 19 19 18 17 16 16 17 17 17 16 17 17 17 18 18 19 19 19 20 21 21 22 23 24
17 17 17 18 19 19 19 19 18 19 18 17 18 18 19 19 19 19 19 20 19 18 17 17 17 17 18 18 17 17 18 18 18 19 19 19 20 20 21 22 22 23 23 24
19 19 20 20 21 21 21 20 21 21 21 21 20 21 21 20 20 19 19 20 19 18 18 18 18 18 18 18 18 18 18 19 19 20 20 20 21 21 21 21 22 22 23 24
21 22 23 22 22 23 22 22 22 22 22 22 22 22 21 21 21 21 20 20 19 20 19 19 19 20 20 19 19 19 19 20 20 20 21 20 21 21 22 22 22 22 23 23
21 20 22 23 23 23 23 23 23 23 23 23 22 21 21 20 20 20 21 20 19 20 19 20 20 21 21 20 20 20 20 20 20 21 21 21 21 21 22 22 22 22 23 23
21 21 22 22 22 22 23 23 22 22 23 21 22 21 20 20 20 19 19 20 21 20 20 20 20 21 21 20 20 20 20 20 21 21 21 22 21 22 22 23 23 23 24 24
20 21 22 22 22 22 22 22 22 22 22 21 21 20 20 19 20 20 19 20 20 20 21 21 22 21 20 20 20 20 21 21 21 21 21 22 22 23 23 23 23 23 24 24
19 20 20 21 20 20 20 20 21 21 21 21 21 20 20 20 20 20 20 21 21 21 21 21 22 22 22 22 22 22 22 22 22 22 22 22 23 23 24 24 24 24 24 24
19 20 19 20 20 20 20 20 21 22 21 21 21 20 20 20 21 21 21 21 21 22 22 22 22 22 22 22 23 23 23 23 23 23 23 23 23 23 24 24 24 24 24 24